EW2751 Weather Reports


time (UTC)temp
C
wind
direction
speed
KPH
gust
KPH
rain 1hr
cm
rain 24hr
cm
rain mn
cm
humidity
%
barometer
mb
20260509010520 19 341 4.8 22.5 0.03 0.51 0.30 80 1004.4
20260509010019 19 281 4.8 16.1 0.03 0.51 0.30 81 1004.5
20260509005520 18 276 3.2 16.1 0.03 0.51 0.30 82 1004.7
20260509005034 18 254 8.0 19.3 0.03 0.51 0.30 81 1004.8
20260509004521 18 271 11.3 20.9 0.03 0.51 0.30 83 1004.9
20260509004019 17 259 12.9 19.3 0.03 0.51 0.30 84 1005.1
20260509003519 17 272 6.4 20.9 0.03 0.51 0.30 84 1005.2
20260509003019 17 299 11.3 24.1 0.03 0.51 0.30 84 1005.3
20260509002519 17 255 14.5 30.6 0.03 0.51 0.30 83 1005.3
20260509002020 18 303 14.5 30.6 0.03 0.51 0.30 80 1005.4
20260509001520 19 272 6.4 16.1 0.00 0.51 0.28 81 1005.4
20260509001023 19 296 6.4 16.1 0.00 0.51 0.28 81 1005.5
20260509000518 18 330 4.8 14.5 0.00 0.51 0.28 82 1005.6
20260509000018 18 301 4.8 16.1 0.00 0.51 0.28 82 1005.7
20260508235529 18 268 8.0 19.3 0.00 0.51 0.28 81 1005.7
20260508235021 18 290 8.0 19.3 0.00 0.51 0.28 81 1005.7
20260508230018 17 322 4.8 11.3 0.20 0.51 0.28 90 1006.3
20260508230014 17 316 4.8 11.3 0.20 0.51 0.28 90 1006.3
20260508220010 19 312 6.4 9.7 0.00 0.30 0.08 85 1006.5
20260508210011 17 293 3.2 11.3 0.00 0.30 0.08 91 1006.7
20260508200025 16 353 1.6 11.3 0.00 0.30 0.08 94 1006.5
20260508195517 16 335 1.6 6.4 0.00 0.30 0.08 94 1006.5
20260508195017 16 322 1.6 8.0 0.00 0.30 0.08 94 1006.4
20260508194517 16 322 3.2 8.0 0.00 0.30 0.08 94 1006.3
20260508194017 16 320 0.0 4.8 0.00 0.30 0.08 94 1006.3
20260508193515 16 328 0.0 0.0 0.00 0.30 0.08 94 1006.3
20260508193015 16 328 0.0 0.0 0.00 0.30 0.08 94 1006.3
20260508192515 15 328 0.0 0.0 0.00 0.30 0.08 94 1006.3
20260508192026 15 327 0.0 0.0 0.00 0.30 0.08 94 1006.4
20260508191517 15 313 0.0 0.0 0.00 0.30 0.08 94 1006.3
20260508191015 16 313 0.0 0.0 0.00 0.30 0.08 94 1006.3
20260508190516 16 311 0.0 0.0 0.00 0.30 0.08 94 1006.3
20260508190017 16 311 0.0 0.0 0.00 0.30 0.08 94 1006.2
20260508185515 16 310 0.0 0.0 0.00 0.30 0.08 94 1006.1
20260508185017 16 310 0.0 0.0 0.00 0.30 0.08 94 1006.1
20260508184528 16 310 0.0 0.0 0.00 0.30 0.08 94 1006.1
20260508184015 16 310 0.0 4.8 0.00 0.30 0.08 94 1006.1
20260508183515 16 310 0.0 6.4 0.00 0.30 0.08 94 1006.1
20260508183015 16 312 3.2 6.4 0.00 0.30 0.08 94 1006.1
20260508182516 15 300 1.6 6.4 0.00 0.30 0.08 94 1006.1
20260508182017 15 301 0.0 6.4 0.00 0.30 0.08 94 1006.1
20260508181528 15 286 0.0 0.0 0.00 0.30 0.08 94 1006.2
20260508181016 15 299 0.0 0.0 0.00 0.30 0.08 94 1006.1
20260508180516 15 299 0.0 0.0 0.00 0.30 0.08 94 1006.1
20260508180015 15 299 0.0 0.0 0.00 0.30 0.08 94 1006.1
20260508175515 15 299 0.0 0.0 0.00 0.30 0.08 93 1006.0
20260508175019 15 299 0.0 0.0 0.00 0.30 0.08 94 1005.9
20260508174527 15 299 0.0 0.0 0.00 0.30 0.08 93 1006.0
20260508174026 15 299 0.0 0.0 0.00 0.30 0.08 93 1005.9
20260508173515 16 299 0.0 0.0 0.00 0.30 0.08 93 1005.9
20260508173016 16 301 0.0 0.0 0.00 0.30 0.08 93 1005.9
20260508172516 16 301 0.0 4.8 0.00 0.30 0.08 93 1005.9
20260508172027 16 302 1.6 4.8 0.00 0.30 0.08 93 1005.9
20260508171528 16 303 1.6 4.8 0.00 0.30 0.08 93 1005.9
20260508171027 15 303 0.0 3.2 0.00 0.30 0.08 93 1005.9
20260508170516 16 303 1.6 3.2 0.00 0.30 0.08 93 1006.0
20260508170016 16 304 1.6 6.4 0.00 0.30 0.08 93 1005.9
20260508165516 16 328 1.6 6.4 0.00 0.30 0.08 93 1005.9
20260508165018 16 293 1.6 4.8 0.00 0.30 0.08 93 1005.9
20260508164517 16 330 0.0 6.4 0.00 0.30 0.08 93 1005.9
20260508164018 16 326 1.6 6.4 0.00 0.30 0.08 93 1005.8
20260508163517 16 317 0.0 6.4 0.00 0.30 0.08 93 1005.8
20260508163016 16 317 0.0 8.0 0.00 0.30 0.08 93 1005.9
20260508162516 16 318 1.6 8.0 0.00 0.30 0.08 93 1005.9
20260508162027 16 337 1.6 8.0 0.00 0.30 0.08 93 1005.9
20260508161530 16 339 1.6 8.0 0.00 0.30 0.08 93 1006.0
20260508161028 16 328 1.6 6.4 0.00 0.30 0.08 93 1006.0
20260508160518 16 326 3.2 6.4 0.00 0.30 0.08 93 1006.0
20260508160016 15 335 3.2 8.0 0.00 0.30 0.08 93 1006.1
20260508155516 15 298 0.0 9.7 0.00 0.30 0.08 93 1006.1
20260508155027 15 292 1.6 9.7 0.00 0.30 0.08 93 1006.1
20260508154518 15 315 1.6 4.8 0.00 0.30 0.08 93 1006.0
20260508154029 15 299 0.0 0.0 0.00 0.30 0.08 93 1006.1
20260508153517 15 313 0.0 0.0 0.00 0.30 0.08 93 1006.2
20260508153018 15 313 0.0 0.0 0.00 0.30 0.08 93 1006.2
20260508152517 15 313 0.0 0.0 0.00 0.30 0.08 93 1006.2
20260508152017 15 312 0.0 0.0 0.00 0.30 0.08 93 1006.3
20260508151528 15 311 0.0 0.0 0.00 0.30 0.08 93 1006.3
20260508151028 15 314 0.0 0.0 0.00 0.30 0.08 93 1006.4
20260508150517 15 314 0.0 0.0 0.00 0.30 0.08 93 1006.4
20260508150017 15 314 0.0 0.0 0.00 0.30 0.08 93 1006.4
20260508145517 15 314 0.0 0.0 0.00 0.30 0.08 93 1006.5
20260508145017 15 313 0.0 0.0 0.00 0.30 0.08 93 1006.6
20260508144517 15 314 0.0 0.0 0.00 0.30 0.08 93 1006.6
20260508144017 15 335 0.0 0.0 0.00 0.30 0.08 93 1006.6
20260508143528 15 331 0.0 0.0 0.00 0.30 0.08 93 1006.5
20260508143019 15 332 0.0 0.0 0.00 0.30 0.08 93 1006.5
20260508142517 15 320 0.0 3.2 0.00 0.30 0.08 93 1006.6
20260508142018 15 317 0.0 6.4 0.00 0.30 0.08 93 1006.7
20260508141518 15 321 1.6 8.0 0.00 0.30 0.08 93 1006.7
20260508141017 15 318 1.6 8.0 0.00 0.30 0.08 93 1006.8
20260508140517 15 310 0.0 0.0 0.00 0.30 0.08 93 1006.9
20260508140017 15 310 0.0 0.0 0.00 0.30 0.08 93 1006.9
20260508135528 15 310 0.0 1.6 0.00 0.30 0.08 93 1007.0
20260508135017 15 310 0.0 3.2 0.03 0.30 0.08 93 1007.0
20260508134517 15 304 1.6 4.8 0.03 0.30 0.08 93 1007.0
20260508134028 15 303 0.0 4.8 0.03 0.30 0.08 93 1006.9
20260508133521 15 302 0.0 4.8 0.03 0.30 0.08 93 1007.0
20260508133028 15 301 1.6 4.8 0.03 0.30 0.08 93 1006.9
20260508132518 15 318 1.6 4.8 0.03 0.30 0.08 93 1007.1
20260508132029 15 320 0.0 1.6 0.05 0.30 0.08 93 1007.1
20260508131530 15 320 0.0 4.8 0.05 0.30 0.08 92 1007.0
20260508131018 15 320 1.6 4.8 0.08 0.30 0.08 92 1006.8
20260508130530 15 306 1.6 4.8 0.08 0.30 0.08 92 1006.8
20260508130019 15 303 0.0 4.8 0.08 0.30 0.08 92 1006.9
20260508125517 15 303 1.6 4.8 0.05 0.28 0.05 92 1007.0
20260508125030 15 303 0.0 3.2 0.05 0.28 0.05 92 1007.0
20260508124517 15 303 0.0 3.2 0.05 0.28 0.05 92 1007.2
20260508124029 15 303 1.6 3.2 0.05 0.28 0.05 92 1007.2
20260508123529 15 303 0.0 4.8 0.05 0.28 0.05 92 1007.2
20260508123018 15 303 0.0 6.4 0.05 0.28 0.05 92 1007.4
20260508122519 15 303 3.2 11.3 0.05 0.28 0.05 91 1007.4
20260508122019 15 327 4.8 12.9 0.05 0.25 0.05 91 1007.7
20260508121519 15 298 4.8 17.7 0.05 0.23 0.00 91 1007.8
20260508121017 15 304 8.0 17.7 0.08 0.23 0.00 91 1007.8
20260508120520 15 289 8.0 17.7 0.10 0.23 0.00 91 1007.8
20260508120021 16 283 8.0 17.7 0.10 0.23 0.00 91 1007.7
20260508115517 16 318 8.0 17.7 0.10 0.23 0.23 91 1007.7
20260508115018 16 337 8.0 19.3 0.10 0.23 0.23 91 1007.9
20260508114518 16 253 9.7 19.3 0.10 0.23 0.23 91 1008.0
20260508114018 16 293 8.0 20.9 0.10 0.23 0.23 91 1007.7
20260508113518 16 328 9.7 20.9 0.10 0.23 0.23 91 1007.6
20260508113022 16 245 8.0 27.4 0.10 0.23 0.23 91 1007.6
20260508112522 16 308 12.9 30.6 0.10 0.23 0.23 91 1007.7
20260508112021 17 289 17.7 32.2 0.08 0.20 0.20 90 1007.6
20260508111520 18 280 14.5 24.1 0.05 0.15 0.15 91 1007.4
20260508111029 18 324 3.2 14.5 0.03 0.15 0.15 91 1007.0
20260508110518 18 297 3.2 16.1 0.00 0.13 0.13 90 1007.0
20260508110018 18 101 6.4 16.1 0.00 0.13 0.13 91 1006.8
20260508105518 18 14 4.8 19.3 0.00 0.13 0.13 90 1007.0
20260508105020 18 328 8.0 19.3 0.00 0.13 0.13 90 1007.0
20260508104518 18 76 8.0 16.1 0.00 0.13 0.13 90 1007.1
20260508104020 18 62 4.8 16.1 0.00 0.13 0.13 90 1007.2
20260508103518 18 93 4.8 14.5 0.00 0.13 0.13 90 1007.4
20260508103018 18 45 1.6 12.9 0.00 0.13 0.13 90 1007.4
20260508102518 18 17 0.0 14.5 0.03 0.13 0.13 90 1007.4
20260508102018 18 6 3.2 16.1 0.03 0.13 0.13 90 1007.5
20260508101519 18 43 3.2 16.1 0.05 0.13 0.13 90 1007.5
20260508101019 18 303 1.6 11.3 0.05 0.13 0.13 90 1007.6
20260508100518 18 349 1.6 8.0 0.05 0.13 0.13 90 1007.7
20260508100020 18 74 0.0 9.7 0.08 0.13 0.13 90 1007.7
20260508095530 18 332 3.2 12.9 0.08 0.13 0.13 90 1007.8
20260508095019 18 19 3.2 12.9 0.08 0.13 0.13 90 1007.8
20260508094531 18 7 0.0 11.3 0.08 0.13 0.13 90 1007.9
20260508094020 18 326 0.0 16.1 0.08 0.13 0.13 90 1008.0
20260508093518 18 341 6.4 16.1 0.08 0.13 0.13 90 1007.9
20260508093031 18 10 4.8 12.9 0.08 0.13 0.13 89 1007.9
20260508092532 18 70 6.4 12.9 0.05 0.10 0.10 89 1007.9
20260508092020 18 66 1.6 8.0 0.05 0.08 0.08 88 1008.1
20260508091521 18 340 0.0 8.0 0.05 0.08 0.08 88 1008.3
20260508091019 18 350 1.6 12.9 0.03 0.05 0.05 87 1008.4
20260508090519 18 329 1.6 16.1 0.03 0.05 0.05 87 1008.4
20260508090020 18 310 4.8 16.1 0.00 0.05 0.05 86 1008.4
20260508085519 18 14 3.2 11.3 0.00 0.05 0.05 87 1008.4
20260508085019 18 301 3.2 17.7 0.00 0.05 0.05 87 1008.3
20260508084530 18 104 6.4 17.7 0.03 0.05 0.05 87 1008.5
20260508084019 18 49 6.4 20.9 0.03 0.05 0.05 87 1008.5
20260508083519 18 67 1.6 11.3 0.03 0.05 0.05 87 1008.5
20260508083020 18 17 3.2 11.3 0.03 0.05 0.05 87 1008.7
20260508082519 18 68 3.2 16.1 0.03 0.05 0.05 87 1008.6
20260508082020 18 311 4.8 16.1 0.03 0.05 0.05 87 1008.7
20260508081522 18 312 3.2 14.5 0.03 0.05 0.05 88 1008.8
20260508081030 18 3 6.4 14.5 0.03 0.05 0.05 88 1008.7
20260508080520 18 57 4.8 17.7 0.03 0.05 0.05 88 1008.8
20260508080035 18 62 8.0 17.7 0.03 0.05 0.05 88 1008.7
20260508075530 18 19 4.8 24.1 0.03 0.05 0.05 88 1008.7
20260508075019 18 51 6.4 30.6 0.03 0.05 0.05 88 1008.8
20260508074515 18 68 8.0 30.6 0.00 0.03 0.03 88 1008.6
20260508074017 18 81 11.3 27.4 0.00 0.03 0.03 88 1008.6
20260508073515 18 81 11.3 25.7 0.00 0.03 0.03 88 1009.0
20260508073015 18 90 6.4 16.1 0.00 0.03 0.03 89 1009.2
20260508072517 18 325 6.4 16.1 0.00 0.03 0.03 89 1009.7
20260508072016 18 324 4.8 12.9 0.00 0.03 0.03 89 1009.6
20260508071516 18 314 3.2 14.5 0.00 0.03 0.03 89 1009.4
20260508071026 18 337 4.8 14.5 0.00 0.03 0.03 89 1009.4
20260508070517 18 299 1.6 16.1 0.00 0.03 0.03 89 1009.4
20260508070015 18 333 1.6 16.1 0.00 0.03 0.03 89 1009.5
20260508065526 18 63 3.2 14.5 0.00 0.03 0.03 89 1009.4
20260508065017 18 338 3.2 11.3 0.00 0.03 0.03 89 1009.5
20260508064516 18 4 3.2 17.7 0.03 0.03 0.03 89 1009.3
20260508064028 18 279 3.2 17.7 0.03 0.03 0.03 89 1009.2
20260508063516 18 62 4.8 16.1 0.03 0.03 0.03 89 1009.2
20260508063017 18 68 3.2 16.1 0.03 0.03 0.03 89 1009.2
20260508062518 18 73 8.0 16.1 0.03 0.03 0.03 89 1009.1
20260508062019 18 65 4.8 14.5 0.03 0.03 0.03 88 1009.1
20260508060034 18 97 4.8 17.7 0.03 0.03 0.03 87 1009.3
20260508060010 18 24 6.4 17.7 0.03 0.03 0.03 87 1009.3
20260508050043 19 320 6.4 20.9 0.00 0.00 0.00 83 1010.3
20260508050028 19 292 6.4 20.9 0.00 0.00 0.00 83 1010.3
20260508044028 19 99 6.4 22.5 0.00 0.00 0.00 83 1010.6
20260508043516 19 27 9.7 20.9 0.00 0.00 0.00 84 1010.9
20260508043017 19 251 4.8 19.3 0.00 0.00 0.00 84 1010.9
20260508042517 19 34 8.0 20.9 0.00 0.00 0.00 84 1011.0
20260508042016 19 59 11.3 24.1 0.00 0.00 0.00 84 1010.9
20260508041520 19 64 11.3 24.1 0.00 0.00 0.00 83 1011.1
20260508041016 19 49 9.7 22.5 0.00 0.00 0.00 83 1011.1
20260508040516 19 42 9.7 17.7 0.00 0.00 0.00 82 1011.2
20260508040016 20 293 6.4 17.7 0.00 0.00 0.00 82 1011.4
20260508040009 20 308 8.0 17.7 0.00 0.00 0.00 82 1011.4